Weather History for Estherville, IA

Change the Weather History Date:

Wednesday, December 7, 2011

  Actual Average Record
Temperature  
Mean Temperature 19 °F 22 °F  
Max Temperature 28 °F 30 °F 46 °F (1999)
Min Temperature 10 °F 13 °F -18 °F (1972)
Degree Days  
Heating Degree Days 46 43  
Month to date heating degree days 332 295  
Since 1 July heating degree days 1815 2014  
Cooling Degree Days 0 0  
Month to date cooling degree days 0 0  
Year to date cooling degree days 767 593  
Moisture  
Dew Point 17 °F    
Average Humidity 79    
Maximum Humidity 88    
Minimum Humidity 69    
Precipitation  
Precipitation 0.00 in 0.05 in 0.33 in (1969)
Month to date precipitation 0.16 0.34  
Year to date precipitation 19.18  
Sea Level Pressure  
Sea Level Pressure 30.11 in    
Wind  
Wind Speed 10 mph (WNW)    
Max Wind Speed 24 mph    
Max Gust Speed 29 mph    
Visibility 10 miles    
Events      
T = Trace of Precipitation, MM = Missing Value Source: NWS Daily Summary

Daily Weather History Graph

Daily Weather History Graph

Search for Another Location

Airport:

Trip Planner

Search our weather history database for the weather conditions in past years. The results will help you decide how hot, cold, wet, or windy it might be!

Date:

Astronomy

Dec. 07, 2011 Rise Set
Actual Time 7:37 AM CST 4:42 PM CST
Civil Twilight 7:05 AM CST 5:15 PM CST
Nautical Twilight 6:29 AM CST 5:51 PM CST
Astronomical Twilight 5:54 AM CST 6:25 PM CST
Moon 2:46 PM CST (12/7) 4:51 AM CST (12/7)
Length of Visible Light 10h 09m
Length of Day
9h 05m
Waxing Gibbous, 92% of the Moon is Illuminated
Dec 7
Waxing Gibbous
Dec 10
Full
Dec 17
Last Quarter
Dec 24
New
Jan 1
First Quarter

Hourly Weather History & Observations

Time (CST) Temp. Windchill Dew Point Humidity Pressure Visibility Wind Dir Wind Speed Gust Speed Precip Events Conditions
1:52 AM 12.9 °F -2.2 °F 7.0 °F 77% 30.06 in 10.0 mi SSW 13.8 mph - N/A   Clear
2:52 AM 12.9 °F -1.6 °F 8.1 °F 81% 30.04 in 10.0 mi SSW 12.7 mph - N/A   Clear
4:52 AM 14.0 °F 0.5 °F 8.1 °F 77% 30.03 in 10.0 mi WSW 11.5 mph - N/A   Clear
5:52 AM 14.0 °F -1.4 °F 8.1 °F 77% 30.03 in 10.0 mi WSW 15.0 mph - N/A   Partly Cloudy
7:52 AM 16.0 °F 4.4 °F 10.0 °F 77% 30.05 in 10.0 mi West 9.2 mph - N/A   Partly Cloudy
8:52 AM 18.0 °F 6.9 °F 12.0 °F 78% 30.06 in 10.0 mi WNW 9.2 mph - N/A   Mostly Cloudy
9:52 AM 21.9 °F 11.0 °F 15.1 °F 75% 30.09 in 10.0 mi WNW 10.4 mph - N/A   Clear
10:52 AM 24.1 °F 14.4 °F 18.0 °F 77% 30.11 in 10.0 mi NW 9.2 mph - N/A   Partly Cloudy
11:52 AM 28.0 °F 18.1 °F 21.0 °F 75% 30.09 in 10.0 mi North 11.5 mph - N/A   Mostly Cloudy
12:52 PM 28.0 °F 18.1 °F 19.9 °F 72% 30.10 in 10.0 mi North 11.5 mph - N/A   Partly Cloudy
1:52 PM 27.0 °F 17.3 °F 19.9 °F 75% 30.12 in 10.0 mi NNW 10.4 mph - N/A   Mostly Cloudy
3:52 PM 27.0 °F 23.0 °F 21.9 °F 81% 30.14 in 10.0 mi NNW 3.5 mph - N/A   Overcast
4:52 PM 25.0 °F 19.3 °F 19.9 °F 81% 30.14 in 10.0 mi NNW 4.6 mph - N/A   Overcast
5:52 PM 23.0 °F 18.4 °F 19.9 °F 88% 30.16 in 10.0 mi WSW 3.5 mph - N/A   Overcast
6:52 PM 24.1 °F 17.0 °F 19.9 °F 84% 30.15 in 10.0 mi SSW 5.8 mph - N/A   Overcast
7:52 PM 25.0 °F 18.1 °F 21.9 °F 88% 30.16 in 10.0 mi West 5.8 mph - N/A   Overcast
8:52 PM 25.0 °F 18.1 °F 21.9 °F 88% 30.17 in 10.0 mi West 5.8 mph - N/A   Overcast
9:52 PM 28.0 °F 20.0 °F 21.9 °F 78% 30.15 in 10.0 mi West 8.1 mph - N/A   Overcast
10:52 PM 28.0 °F 19.3 °F 21.9 °F 78% 30.15 in 10.0 mi WNW 9.2 mph - N/A   Overcast
11:52 PM 27.0 °F 18.0 °F 19.9 °F 75% 30.16 in 10.0 mi WNW 9.2 mph - N/A   Overcast